GW0246 Weather Reports


time (UTC)temp
F
wind
direction
speed
knots
gust
knots
rain 1hr
in
rain 24hr
in
rain mn
in
humidity
%
barometer
mb
20260506104505 48 102 0.0 0.9 0.00 0.00 0.00 94 1019.5
20260506103816 48 100 0.0 0.9 0.00 0.00 0.00 94 1019.5
20260506102918 48 100 0.0 1.7 0.00 0.00 0.00 94 1019.5
20260506101805 48 96 0.0 1.7 0.00 0.00 0.00 93 1019.5
20260506100904 48 98 0.0 0.9 0.00 0.00 0.00 93 1019.5
20260506100215 49 101 0.0 0.9 0.00 0.00 0.00 93 1019.6
20260506095617 49 99 0.0 0.9 0.00 0.00 0.00 93 1019.6
20260506094505 49 118 0.0 0.9 0.00 0.00 0.00 93 1019.6
20260506093816 49 108 0.0 0.9 0.00 0.00 0.00 93 1019.7
20260506092914 50 97 0.0 0.9 0.00 0.00 0.00 93 1019.6
20260506091806 50 124 0.0 0.9 0.00 0.00 0.00 92 1019.6
20260506090905 50 91 0.0 0.9 0.00 0.00 0.00 92 1019.6
20260506090005 50 91 0.0 0.9 0.00 0.00 0.00 92 1019.7
20260506085405 50 91 0.0 0.9 0.00 0.00 0.00 92 1019.6
20260506084715 50 0 0.0 0.0 0.00 0.00 0.00 91 1019.6
20260506083605 51 102 0.0 0.9 0.00 0.00 0.00 91 1019.5
20260506082914 51 102 0.0 0.9 0.00 0.00 0.00 91 1019.5
20260506081805 52 0 0.0 0.0 0.00 0.00 0.00 89 1019.5
20260506080905 52 0 0.0 0.0 0.00 0.00 0.00 89 1019.4
20260506080216 53 0 0.0 0.0 0.00 0.00 0.00 88 1019.4
20260506072705 55 0 0.0 0.0 0.00 0.00 0.00 85 1019.1
20260506071805 56 0 0.0 0.0 0.00 0.00 0.00 85 1019.3
20260506070905 56 0 0.0 0.0 0.00 0.00 0.00 85 1019.2
20260506070217 56 0 0.0 0.0 0.00 0.00 0.00 84 1019.1
20260506061805 57 0 0.0 0.0 0.00 0.00 0.00 83 1019.0
20260506060905 57 0 0.0 0.0 0.00 0.00 0.00 82 1018.9
20260506060218 57 0 0.0 0.0 0.00 0.00 0.00 83 1018.8
20260506050904 57 216 0.0 0.9 0.00 0.00 0.00 83 1018.6
20260506044717 57 223 0.0 0.9 0.00 0.00 0.00 83 1018.5
20260506043814 57 0 0.0 0.0 0.00 0.00 0.00 84 1018.4
20260506042917 57 0 0.0 0.0 0.00 0.00 0.00 84 1018.3
20260506042014 57 263 0.0 0.9 0.00 0.00 0.00 84 1018.2
20260506040905 57 0 0.0 0.0 0.00 0.00 0.00 84 1018.1
20260506040219 57 302 0.0 0.9 0.00 0.00 0.00 85 1018.1
20260506035404 57 302 0.0 0.9 0.00 0.00 0.00 85 1018.0
20260506034505 57 0 0.0 0.0 0.00 0.00 0.00 84 1017.9
20260506033815 57 0 0.0 0.0 0.00 0.00 0.00 85 1017.7
20260506032917 57 0 0.0 0.0 0.00 0.00 0.00 85 1017.6
20260506032015 57 316 0.0 0.9 0.00 0.00 0.00 85 1017.6
20260506030905 57 276 0.0 1.7 0.00 0.00 0.00 84 1017.3
20260506030005 58 291 0.0 0.9 0.00 0.00 0.00 83 1017.2
20260506025616 58 275 0.0 0.9 0.00 0.00 0.00 83 1017.1
20260506024718 58 278 0.9 3.5 0.00 0.00 0.00 83 1017.2
20260506023605 58 292 0.9 3.5 0.00 0.00 0.00 81 1017.4
20260506022918 58 297 0.9 3.5 0.00 0.00 0.00 81 1017.4
20260506022015 58 303 0.9 4.3 0.00 0.00 0.00 80 1017.3
20260506021118 58 294 0.9 2.6 0.00 0.00 0.00 78 1017.2
20260506020215 59 305 0.9 4.3 0.00 0.00 0.00 77 1017.1
20260506015405 59 283 0.0 3.5 0.00 0.00 0.00 76 1017.1
20260506014714 60 284 0.9 3.5 0.00 0.00 0.00 75 1016.9
20260506013604 60 293 0.9 4.3 0.00 0.00 0.00 74 1016.9
20260506012919 60 310 1.7 6.1 0.00 0.00 0.00 75 1016.9
20260506012016 61 302 1.7 5.2 0.00 0.00 0.00 73 1016.9
20260506010905 62 285 0.9 4.3 0.00 0.00 0.00 71 1016.8
20260506010005 63 278 0.9 3.5 0.00 0.00 0.00 69 1016.8
20260506005404 62 284 1.7 5.2 0.00 0.00 0.00 69 1016.9
20260506004720 62 301 0.9 5.2 0.00 0.00 0.00 70 1016.8
20260506003817 63 281 0.9 4.3 0.00 0.00 0.00 70 1016.8
20260506002914 62 279 0.9 4.3 0.00 0.00 0.00 71 1016.7
20260506001805 61 285 1.7 6.1 0.00 0.00 0.00 72 1016.8
20260506000905 62 288 1.7 6.1 0.00 0.00 0.00 71 1016.6
20260506000005 62 319 0.9 6.1 0.00 0.00 0.00 71 1016.6
20260505235618 62 318 1.7 6.1 0.00 0.00 0.00 71 1016.5
20260505234505 62 296 1.7 7.0 0.00 0.00 0.00 70 1016.5
20260505233605 63 289 0.9 5.2 0.00 0.00 0.00 69 1016.4
20260505232915 63 287 0.9 5.2 0.00 0.00 0.00 68 1016.5
20260505231805 63 274 1.7 5.2 0.00 0.00 0.00 71 1016.5
20260505230904 62 317 1.7 5.2 0.00 0.00 0.00 71 1016.5
20260505230217 61 300 1.7 6.1 0.00 0.00 0.00 73 1016.6
20260505225405 61 285 0.9 4.3 0.00 0.00 0.00 73 1016.7
20260505224716 62 260 0.9 2.6 0.00 0.00 0.00 75 1016.7
20260505223604 62 273 0.9 6.1 0.00 0.00 0.00 74 1016.8
20260505222916 62 278 0.9 3.5 0.00 0.00 0.00 73 1016.8
20260505221804 62 294 1.7 7.0 0.00 0.00 0.00 73 1016.8
20260505220905 63 266 0.9 5.2 0.00 0.00 0.00 72 1016.8
20260505220005 62 284 1.7 7.0 0.00 0.00 0.00 73 1016.8
20260505215405 63 288 2.6 8.7 0.00 0.00 0.00 71 1016.8
20260505214504 62 278 1.7 7.0 0.00 0.00 0.00 72 1016.9
20260505213819 62 298 1.7 7.0 0.00 0.00 0.00 72 1016.9
20260505212916 63 290 1.7 7.0 0.00 0.00 0.00 71 1017.1
20260505211805 62 294 1.7 5.2 0.00 0.00 0.00 69 1017.1
20260505211116 64 312 1.7 5.2 0.00 0.00 0.00 67 1017.1
20260505210218 63 287 2.6 7.0 0.00 0.00 0.00 67 1017.1
20260505205615 64 288 2.6 7.0 0.00 0.00 0.00 67 1017.0
20260505204505 64 286 1.7 6.1 0.00 0.00 0.00 67 1017.0
20260505203814 64 295 2.6 7.8 0.00 0.00 0.00 67 1017.0
20260505202705 64 289 2.6 7.0 0.00 0.00 0.00 68 1017.0
20260505201805 64 307 1.7 7.8 0.00 0.00 0.00 66 1017.1
20260505201117 63 300 1.7 7.8 0.00 0.00 0.00 67 1017.1
20260505200005 63 279 1.7 5.2 0.00 0.00 0.00 68 1017.1
20260505195405 62 292 1.7 5.2 0.00 0.00 0.00 68 1017.2
20260505194505 61 300 2.6 7.0 0.00 0.00 0.00 71 1017.3
20260505193605 62 291 1.7 7.0 0.00 0.00 0.00 71 1017.3
20260505192918 61 287 1.7 6.1 0.00 0.00 0.00 70 1017.4
20260505192015 61 284 1.7 5.2 0.00 0.00 0.00 69 1017.4
20260505190905 61 295 0.9 3.5 0.00 0.00 0.00 69 1017.4
20260505190214 61 275 0.9 3.5 0.00 0.00 0.00 71 1017.5
20260505185404 61 273 0.9 2.6 0.00 0.00 0.00 73 1017.4
20260505184718 60 274 0.0 1.7 0.00 0.00 0.00 73 1017.4
20260505183816 60 287 0.9 4.3 0.00 0.00 0.00 74 1017.4
20260505182918 60 270 0.9 4.3 0.00 0.00 0.00 73 1017.4
20260505182015 60 251 0.0 2.6 0.00 0.00 0.00 75 1017.2
20260505180905 59 247 0.0 2.6 0.00 0.00 0.00 76 1017.1
20260505180004 58 324 0.0 2.6 0.00 0.00 0.00 78 1017.0
20260505175617 58 310 0.9 2.6 0.00 0.00 0.00 78 1017.0
20260505174505 58 258 0.9 5.2 0.00 0.00 0.00 78 1016.9
20260505173605 57 266 0.0 5.2 0.00 0.00 0.00 78 1016.8
20260505172919 57 300 0.0 1.7 0.00 0.00 0.00 79 1016.8
20260505171804 57 274 0.0 2.6 0.00 0.00 0.00 78 1016.9
20260505171118 57 279 0.0 2.6 0.00 0.00 0.00 79 1016.9
20260505170216 57 293 0.0 3.5 0.00 0.00 0.00 78 1017.1
20260505165405 57 293 0.0 2.6 0.00 0.00 0.00 79 1016.8
20260505164720 58 272 0.0 2.6 0.00 0.00 0.00 79 1016.8
20260505163604 58 294 0.9 3.5 0.00 0.00 0.00 77 1016.6
20260505162914 58 289 0.9 2.6 0.00 0.00 0.00 77 1016.5
20260505162017 58 256 0.9 2.6 0.00 0.00 0.00 76 1016.4
20260505161114 59 284 0.0 3.5 0.00 0.00 0.00 75 1016.4
20260505160216 58 307 0.0 2.6 0.00 0.00 0.00 76 1016.2
20260505152915 57 270 0.9 2.6 0.00 0.00 0.00 78 1016.4
20260505151805 57 291 0.9 1.7 0.00 0.00 0.00 76 1016.4
20260505151115 57 290 0.0 1.7 0.00 0.00 0.00 76 1016.2
20260505140218 53 200 0.0 3.5 0.00 0.00 0.00 83 1015.7
20260505124717 50 0 0.0 0.0 0.00 0.00 0.00 89 1015.6
20260505123605 50 0 0.0 0.0 0.00 0.00 0.00 88 1015.5
20260505122917 50 228 0.0 0.9 0.00 0.00 0.00 87 1015.6
20260505122014 51 0 0.0 0.0 0.00 0.00 0.00 86 1015.6
20260505120905 52 0 0.0 0.0 0.00 0.00 0.00 85 1015.5
20260505120005 52 230 0.0 0.9 0.00 0.00 0.00 84 1015.3
20260505115405 52 230 0.0 0.9 0.00 0.00 0.00 84 1015.4
20260505114718 52 217 0.0 0.9 0.00 0.00 0.00 84 1015.4
20260505113604 52 188 0.0 1.7 0.00 0.00 0.00 85 1015.3
20260505112918 52 188 0.0 1.7 0.00 0.00 0.00 85 1015.3
20260505111805 52 201 0.0 2.6 0.00 0.00 0.00 86 1015.4
20260505111117 52 169 0.0 2.6 0.00 0.00 0.00 87 1015.3
20260505110214 52 170 0.0 1.7 0.00 0.00 0.00 87 1015.4